Overview Statistics Trail Chart Weather Telemetry Raw packets
 

This is the latest recevied weather packets stored in our database for station/object W4UWO. If no packets are shown the sender has not sent any weather packets the latest 10 day(s).

<< 6 7 8 9 10 11 12 >>
Time Temp. Humidity Pressure Rain* Wind** Luminosity Snow
1788578294 28.89° C 73% 1015.8 hPa 0 mm - 0 W/m² -
1788578014 29.44° C 71% 1015.8 hPa 0 mm - 0 W/m² -
1788577685 28.89° C 72% 1015.9 hPa 0 mm - 0 W/m² -
1788577380 28.89° C 72% 1015.8 hPa 0 mm - 0 W/m² -
1788577080 28.89° C 72% 1016 hPa 0 mm - 0 W/m² -
1788576775 28.89° C 72% 1015.9 hPa 0 mm - 0 W/m² -
1788576471 28.89° C 72% 1015.7 hPa 0 mm - 0 W/m² -
1788576166 29.44° C 70% 1015.8 hPa 0 mm - 0 W/m² -
1788575861 29.44° C 70% 1015.5 hPa 0 mm - 0 W/m² -
1788575556 29.44° C 69% 1015.7 hPa 0 mm - 0 W/m² -
1788575256 30° C 68% 1015.7 hPa 0 mm - 0 W/m² -
1788574951 30° C 67% 1015.7 hPa 0 mm - 0 W/m² -
1788574651 30° C 66% 1015.8 hPa 0 mm - 0 W/m² -
1788574346 30.56° C 66% 1015.7 hPa 0 mm - 0 W/m² -
1788574041 30.56° C 65% 1015.7 hPa 0 mm - 0 W/m² -
1788573736 31.11° C 62% 1015.8 hPa 0 mm - 0 W/m² -
1788573435 31.67° C 60% 1015.6 hPa 0 mm - 0 W/m² -
1788573135 31.67° C 58% 1015.8 hPa 0 mm - 0 W/m² -
1788572833 31.67° C 57% 1015.6 hPa 0 mm - 0 W/m² -
1788572529 31.67° C 57% 1015.7 hPa 0 mm - 0 W/m² -
1788572225 32.22° C 57% 1015.3 hPa 0 mm - 0 W/m² -
1788571921 32.22° C 57% 1015.7 hPa 0 mm - 0 W/m² -
1788571616 32.22° C 57% 1015.6 hPa 0 mm - 0 W/m² -
1788571312 32.22° C 56% 1015.4 hPa 0 mm - 0 W/m² -
1788571008 32.22° C 56% 1015.4 hPa 0 mm - 0 W/m² -

* Rain latest hour (hover to see other rain measurements)
** Current wind speed in m/s (hover to see current wind gust speed)